This is the latest recevied weather packets stored in our database for station/object OE3MNS-13. If no packets are shown the sender has not sent any weather packets the latest 10 day(s).
| Time | Temp. | Humidity | Pressure | Rain* | Wind** | Luminosity | Snow |
|---|---|---|---|---|---|---|---|
| 1777785665 | 8.89° C | 75% | 1017.6 hPa | 0 mm | - | 92 W/m² | - |
| 1777782618 | 6.11° C | 83% | 1017.5 hPa | 0 mm | - | 28 W/m² | - |
| 1777779620 | 5.56° C | 84% | 1017.4 hPa | 0 mm | - | 4 W/m² | - |
| 1777777221 | 6.11° C | 82% | 1017.4 hPa | 0 mm | - | 0 W/m² | - |
| 1777775423 | 6.67° C | 79% | 1017.4 hPa | 0 mm | - | 0 W/m² | - |
| 1777772463 | 8.33° C | 74% | 1017.3 hPa | 0 mm | - | 0 W/m² | - |
| 1777770617 | 8.33° C | 73% | 1017.6 hPa | 0 mm | - | 0 W/m² | - |
| 1777767622 | 8.89° C | 69% | 1017.6 hPa | 0 mm | - | 0 W/m² | - |
| 1777765822 | 9.44° C | 67% | 1018 hPa | 0 mm | - | 0 W/m² | - |
| 1777765217 | 9.44° C | 67% | 1018.2 hPa | 0 mm | - | 0 W/m² | - |
| 1777764618 | 9.44° C | 67% | 1018.2 hPa | 0 mm | - | 0 W/m² | - |
| 1777762820 | 10° C | 66% | 1018.5 hPa | 0 mm | - | 0 W/m² | - |
| 1777760418 | 10.56° C | 63% | 1018.6 hPa | 0 mm | - | 0 W/m² | - |
| 1777759820 | 11.11° C | 62% | 1018.6 hPa | 0 mm | - | 0 W/m² | - |
| 1777758019 | 11.11° C | 61% | 1018.7 hPa | 0 mm | - | 0 W/m² | - |
| 1777755619 | 12.22° C | 58% | 1019.1 hPa | 0 mm | - | 0 W/m² | - |
| 1777753845 | 12.22° C | 58% | 1019.3 hPa | 0 mm | - | 0 W/m² | - |
| 1777739121 | 22.78° C | 29% | 1019.4 hPa | 0 mm | - | 137 W/m² | - |
| 1777736721 | 23.89° C | 28% | 1019.7 hPa | 0 mm | - | 261 W/m² | - |
| 1777735523 | 24.44° C | 26% | 1020.1 hPa | 0 mm | - | 325 W/m² | - |
| 1777734921 | 24.44° C | 26% | 1020.2 hPa | 0 mm | - | 359 W/m² | - |
| 1777733719 | 25° C | 27% | 1020.3 hPa | 0 mm | - | 420 W/m² | - |
| 1777731921 | 25° C | 25% | 1020.5 hPa | 0 mm | - | 506 W/m² | - |
| 1777730743 | 25° C | 25% | 1020.9 hPa | 0 mm | - | 558 W/m² | - |
| 1777727722 | 24.44° C | 25% | 1021.4 hPa | 0 mm | - | 670 W/m² | - |
* Rain latest hour (hover to see other rain measurements)
** Current wind speed in m/s (hover to see current wind gust speed)